,,PA_Meas_PMT16A,,PR_Meas_QMR101_102,,RH_Meas_QMH101,,SR_Meas_QMS101,,TA_Meas_QMH101,,GenWind,,GenWind,
time,status,PA,status,PR,status,RH,status,SR,status,TA,status,DirAvg,status,SpdAvg,
2009-11-02, 00:00:04,VALID,916.363,VALID,0,VALID,82.1042,VALID,0.107441,VALID,22.1362,VALID,112,VALID,0.455859,
2009-11-02, 00:01:04,VALID,916.335,VALID,0,VALID,82.3176,VALID,0.107441,VALID,22.0777,VALID,112,VALID,0.551953,
2009-11-02, 00:02:04,VALID,916.365,VALID,0,VALID,82.2185,VALID,0.107441,VALID,22.0582,VALID,112,VALID,0.760547,
2009-11-02, 00:03:04,VALID,916.326,VALID,0,VALID,83.0038,VALID,0,VALID,22.0582,VALID,112,VALID,0.259766,
2009-11-02, 00:04:04,VALID,916.321,VALID,0,VALID,83.5374,VALID,0.107441,VALID,21.9411,VALID,112,VALID,0.457031,
2009-11-02, 00:05:04,VALID,916.307,VALID,0,VALID,83.7966,VALID,0.107441,VALID,21.8045,VALID,112,VALID,0.813281,
2009-11-02, 00:06:04,VALID,916.305,VALID,0,VALID,83.8881,VALID,0.107441,VALID,21.746,VALID,112,VALID,0.258984,
2009-11-02, 00:07:04,VALID,916.286,VALID,0,VALID,83.7585,VALID,0.107441,VALID,21.7655,VALID,112,VALID,0.280078,
2009-11-02, 00:08:04,VALID,916.3,VALID,0,VALID,83.5298,VALID,0.107441,VALID,21.8241,VALID,112,VALID,0.775391,
2009-11-02, 00:09:04,VALID,916.324,VALID,0,VALID,83.4383,VALID,0.107441,VALID,21.8631,VALID,112,VALID,0.650391,
2009-11-02, 00:10:04,VALID,916.296,VALID,0,VALID,83.141,VALID,0,VALID,21.8826,VALID,112,VALID,0.551172,
2009-11-02, 00:11:04,VALID,916.31,VALID,0,VALID,82.8208,VALID,0.107441,VALID,21.9623,VALID,112,VALID,0.236328,
2009-11-02, 00:12:04,VALID,916.293,VALID,0,VALID,83.3468,VALID,0.107441,VALID,21.9801,VALID,112,VALID,0,
2009-11-02, 00:13:04,VALID,916.316,VALID,0,VALID,83.5298,VALID,0.107441,VALID,21.8826,VALID,112,VALID,0.463281,
2009-11-02, 00:14:04,VALID,916.286,VALID,0,VALID,83.8347,VALID,0.107441,VALID,21.8241,VALID,112,VALID,0.569922,
2009-11-02, 00:15:04,VALID,916.271,VALID,0,VALID,83.8728,VALID,0,VALID,21.785,VALID,112,VALID,0.564062,
2009-11-02, 00:16:04,VALID,916.283,VALID,0,VALID,83.7661,VALID,0.107441,VALID,21.785,VALID,112,VALID,0.489453,
2009-11-02, 00:17:04,VALID,916.258,VALID,0,VALID,83.5145,VALID,0.107441,VALID,21.8045,VALID,112,VALID,0.497656,
2009-11-02, 00:18:04,VALID,916.245,VALID,0,VALID,83.7127,VALID,0.107441,VALID,21.8241,VALID,112,VALID,0.410937,
2009-11-02, 00:19:04,VALID,916.2,VALID,0,VALID,84.0863,VALID,0.107441,VALID,21.8647,VALID,112,VALID,0.392578,
2009-11-02, 00:20:04,VALID,916.197,VALID,0,VALID,83.9567,VALID,0.107441,VALID,21.7655,VALID,112,VALID,0.530078,
2009-11-02, 00:21:04,VALID,916.188,VALID,0,VALID,84.0253,VALID,0.107441,VALID,21.8062,VALID,112,VALID,0.641016,
2009-11-02, 00:22:04,VALID,916.143,VALID,0,VALID,83.9491,VALID,0,VALID,21.8045,VALID,112,VALID,0.767969,
2009-11-02, 00:23:04,VALID,916.152,VALID,0,VALID,83.9796,VALID,0.107441,VALID,21.7655,VALID,112,VALID,0.286719,
2009-11-02, 00:24:04,VALID,916.11,VALID,0,VALID,83.6212,VALID,0,VALID,21.7655,VALID,112,VALID,0.587891,
2009-11-02, 00:25:04,VALID,916.115,VALID,0,VALID,83.5908,VALID,0,VALID,21.9038,VALID,112,VALID,0.711328,
2009-11-02, 00:26:04,VALID,916.094,VALID,0,VALID,83.4002,VALID,0,VALID,21.8826,VALID,112,VALID,0.641406,
2009-11-02, 00:27:04,VALID,916.124,VALID,0,VALID,83.2934,VALID,0,VALID,21.9038,VALID,112,VALID,0.470313,
2009-11-02, 00:28:04,VALID,916.093,VALID,0,VALID,83.1181,VALID,0,VALID,21.9623,VALID,112,VALID,0.817969,
2009-11-02, 00:29:04,VALID,916.096,VALID,0,VALID,83.4688,VALID,0,VALID,21.9606,VALID,112,VALID,0.463281,
2009-11-02, 00:30:04,VALID,916.068,VALID,0,VALID,83.9643,VALID,0,VALID,21.8452,VALID,112,VALID,0.976563,
2009-11-02, 00:31:04,VALID,916.081,VALID,0,VALID,84.0329,VALID,0,VALID,21.8062,VALID,112,VALID,0.817578,
2009-11-02, 00:32:04,VALID,916.065,VALID,0,VALID,83.9262,VALID,0,VALID,21.7867,VALID,91,VALID,0.985937,
2009-11-02, 00:33:04,VALID,916.055,VALID,0,VALID,83.5679,VALID,0,VALID,21.8647,VALID,91,VALID,1.02031,
2009-11-02, 00:34:04,VALID,916.031,VALID,0,VALID,83.1791,VALID,0,VALID,21.9428,VALID,91,VALID,0.645703,
2009-11-02, 00:35:04,VALID,916.043,VALID,0,VALID,83.2706,VALID,0,VALID,22.0013,VALID,91,VALID,0.620703,
2009-11-02, 00:36:04,VALID,916.015,VALID,0,VALID,83.2401,VALID,0,VALID,21.9038,VALID,91,VALID,0.650391,
2009-11-02, 00:37:04,VALID,915.995,VALID,0,VALID,83.1638,VALID,0,VALID,21.9216,VALID,91,VALID,0.538281,
2009-11-02, 00:38:04,VALID,915.988,VALID,0,VALID,83.2248,VALID,0.107441,VALID,21.9818,VALID,91,VALID,0.448438,
2009-11-02, 00:39:04,VALID,915.948,VALID,0,VALID,82.9123,VALID,0,VALID,22.0013,VALID,91,VALID,0.665234,
2009-11-02, 00:40:04,VALID,915.919,VALID,0,VALID,82.9351,VALID,0,VALID,21.9996,VALID,91,VALID,0.63125,
2009-11-02, 00:41:04,VALID,915.919,VALID,0,VALID,82.9809,VALID,0,VALID,21.9818,VALID,91,VALID,0.429688,
2009-11-02, 00:42:04,VALID,915.894,VALID,0,VALID,83.3011,VALID,0,VALID,21.9411,VALID,91,VALID,0.391406,
2009-11-02, 00:43:04,VALID,915.845,VALID,0,VALID,83.5526,VALID,0,VALID,21.8826,VALID,91,VALID,1.01367,
2009-11-02, 00:44:04,VALID,915.815,VALID,0,VALID,83.0952,VALID,0,VALID,21.8631,VALID,91,VALID,1.6793,
2009-11-02, 00:45:04,VALID,915.819,VALID,0,VALID,82.2185,VALID,0,VALID,21.9818,VALID,64,VALID,1.625,
2009-11-02, 00:46:04,VALID,915.8,VALID,0,VALID,82.5463,VALID,0,VALID,21.9623,VALID,54,VALID,1.11133,
2009-11-02, 00:47:04,VALID,915.764,VALID,0,VALID,82.6073,VALID,0,VALID,21.9411,VALID,54,VALID,0.725391,
2009-11-02, 00:48:04,VALID,915.756,VALID,0,VALID,83.3544,VALID,0,VALID,21.9021,VALID,54,VALID,0.8,
2009-11-02, 00:49:04,VALID,915.719,VALID,0,VALID,83.6365,VALID,0,VALID,21.785,VALID,54,VALID,0.509375,
2009-11-02, 00:50:04,VALID,915.693,VALID,0,VALID,84.2464,VALID,0.107441,VALID,21.7265,VALID,54,VALID,0.289453,
2009-11-02, 00:51:04,VALID,915.698,VALID,0,VALID,84.4141,VALID,0,VALID,21.668,VALID,54,VALID,0.0769531,
2009-11-02, 00:52:04,VALID,915.688,VALID,0,VALID,84.8334,VALID,0,VALID,21.6111,VALID,54,VALID,0.233203,
2009-11-02, 00:53:04,VALID,915.676,VALID,0,VALID,85.4737,VALID,0,VALID,21.5136,VALID,54,VALID,0.554688,
2009-11-02, 00:54:04,VALID,915.666,VALID,0,VALID,85.893,VALID,0,VALID,21.416,VALID,54,VALID,0.557031,
2009-11-02, 00:55:04,VALID,915.639,VALID,0,VALID,85.6338,VALID,0,VALID,21.3364,VALID,54,VALID,0.448828,
2009-11-02, 00:56:04,VALID,915.62,VALID,0,VALID,85.7406,VALID,0,VALID,21.3965,VALID,54,VALID,0.187891,
2009-11-02, 00:57:04,VALID,915.608,VALID,0,VALID,85.7329,VALID,0,VALID,21.3754,VALID,54,VALID,0.287891,
2009-11-02, 00:58:04,VALID,915.576,VALID,0,VALID,84.9401,VALID,0,VALID,21.4339,VALID,54,VALID,0.394531,
2009-11-02, 00:59:04,VALID,915.593,VALID,0,VALID,85.3213,VALID,0,VALID,21.4339,VALID,54,VALID,0.871875,
2009-11-02, 01:00:04,VALID,915.612,VALID,0,VALID,86.2208,VALID,0,VALID,21.2779,VALID,54,VALID,0.905469,
2009-11-02, 01:01:04,VALID,915.585,VALID,0,VALID,86.6935,VALID,0,VALID,21.2015,VALID,54,VALID,0.735156,
2009-11-02, 01:02:04,VALID,915.554,VALID,0,VALID,86.8383,VALID,0,VALID,21.1608,VALID,54,VALID,1.02422,
2009-11-02, 01:03:04,VALID,915.567,VALID,0,VALID,86.7011,VALID,0,VALID,21.221,VALID,54,VALID,1.11328,
2009-11-02, 01:04:04,VALID,915.61,VALID,0,VALID,86.602,VALID,0,VALID,21.2389,VALID,54,VALID,1.10039,
2009-11-02, 01:05:04,VALID,915.528,VALID,0,VALID,86.6249,VALID,0,VALID,21.2795,VALID,54,VALID,1.40703,
2009-11-02, 01:06:04,VALID,915.503,VALID,0,VALID,86.5639,VALID,0,VALID,21.2779,VALID,54,VALID,0.680078,
2009-11-02, 01:07:04,VALID,915.521,VALID,0,VALID,86.5639,VALID,0,VALID,21.2584,VALID,54,VALID,0.754687,
2009-11-02, 01:08:04,VALID,915.534,VALID,0,VALID,86.5334,VALID,0,VALID,21.2795,VALID,54,VALID,0.837109,
2009-11-02, 01:09:04,VALID,915.484,VALID,0,VALID,86.3733,VALID,0,VALID,21.3201,VALID,54,VALID,0.605078,
2009-11-02, 01:10:04,VALID,915.468,VALID,0,VALID,86.1598,VALID,0,VALID,21.3591,VALID,54,VALID,0.758594,
2009-11-02, 01:11:04,VALID,915.474,VALID,0,VALID,85.8168,VALID,0,VALID,21.4372,VALID,54,VALID,0.910547,
2009-11-02, 01:12:04,VALID,915.468,VALID,0,VALID,85.8473,VALID,0,VALID,21.4372,VALID,54,VALID,0.990234,
2009-11-02, 01:13:04,VALID,915.444,VALID,0,VALID,85.6262,VALID,0,VALID,21.4957,VALID,54,VALID,0.835938,
2009-11-02, 01:14:04,VALID,915.466,VALID,0,VALID,85.2832,VALID,0,VALID,21.5754,VALID,54,VALID,0.684766,
2009-11-02, 01:15:04,VALID,915.451,VALID,0,VALID,85.0773,VALID,0,VALID,21.5737,VALID,54,VALID,1.04453,
2009-11-02, 01:16:04,VALID,915.441,VALID,0,VALID,85.0316,VALID,0,VALID,21.5932,VALID,54,VALID,1.35156,
2009-11-02, 01:17:04,VALID,915.402,VALID,0,VALID,84.9325,VALID,0,VALID,21.6323,VALID,54,VALID,0.845312,
2009-11-02, 01:18:04,VALID,915.378,VALID,0,VALID,85.1612,VALID,0,VALID,21.5932,VALID,54,VALID,0.827344,
2009-11-02, 01:19:04,VALID,915.351,VALID,0,VALID,85.4814,VALID,0,VALID,21.5542,VALID,54,VALID,1.0375,
2009-11-02, 01:20:04,VALID,915.385,VALID,0,VALID,85.5424,VALID,0,VALID,21.5331,VALID,54,VALID,0.683203,
2009-11-02, 01:21:04,VALID,915.345,VALID,0,VALID,85.5042,VALID,0,VALID,21.5737,VALID,54,VALID,0.934766,
2009-11-02, 01:22:04,VALID,915.372,VALID,0,VALID,85.5805,VALID,0,VALID,21.5542,VALID,54,VALID,0.666406,
2009-11-02, 01:23:04,VALID,915.33,VALID,0,VALID,85.893,VALID,0,VALID,21.5152,VALID,54,VALID,0.903125,
2009-11-02, 01:24:04,VALID,915.339,VALID,0,VALID,86.2056,VALID,0,VALID,21.4534,VALID,54,VALID,0.666016,
2009-11-02, 01:25:04,VALID,915.306,VALID,0,VALID,86.419,VALID,0,VALID,21.4355,VALID,54,VALID,0.480469,
2009-11-02, 01:26:04,VALID,915.311,VALID,0,VALID,86.6172,VALID,0,VALID,21.3965,VALID,54,VALID,0.688672,
2009-11-02, 01:27:04,VALID,915.316,VALID,0,VALID,86.6401,VALID,0,VALID,21.416,VALID,54,VALID,0.68125,
2009-11-02, 01:28:04,VALID,915.318,VALID,0,VALID,86.6325,VALID,0,VALID,21.4177,VALID,54,VALID,0.621484,
2009-11-02, 01:29:04,VALID,915.29,VALID,0,VALID,86.5258,VALID,0,VALID,21.455,VALID,54,VALID,0.814453,
2009-11-02, 01:30:04,VALID,915.331,VALID,0,VALID,86.3962,VALID,0,VALID,21.4746,VALID,54,VALID,1.01211,
2009-11-02, 01:31:04,VALID,915.317,VALID,0,VALID,86.3428,VALID,0,VALID,21.5136,VALID,54,VALID,0.887109,
2009-11-02, 01:32:04,VALID,915.301,VALID,0,VALID,86.3047,VALID,0,VALID,21.5331,VALID,54,VALID,0.553516,
2009-11-02, 01:33:04,VALID,915.298,VALID,0,VALID,86.3123,VALID,0,VALID,21.5526,VALID,54,VALID,0.801562,
2009-11-02, 01:34:04,VALID,915.311,VALID,0,VALID,86.2666,VALID,0,VALID,21.5526,VALID,54,VALID,0.791016,
2009-11-02, 01:35:04,VALID,915.284,VALID,0,VALID,86.3199,VALID,0,VALID,21.5737,VALID,54,VALID,0.838672,
2009-11-02, 01:36:04,VALID,915.294,VALID,0,VALID,86.4343,VALID,0,VALID,21.5526,VALID,54,VALID,0.720703,
2009-11-02, 01:37:04,VALID,915.296,VALID,0,VALID,86.4038,VALID,0,VALID,21.5119,VALID,54,VALID,0.65625,
2009-11-02, 01:38:04,VALID,915.286,VALID,0,VALID,86.5258,VALID,0,VALID,21.5331,VALID,54,VALID,0.651953,
2009-11-02, 01:39:04,VALID,915.282,VALID,0,VALID,86.48,VALID,0,VALID,21.5136,VALID,54,VALID,0.673437,
2009-11-02, 01:40:04,VALID,915.286,VALID,0,VALID,86.7087,VALID,0,VALID,21.5136,VALID,54,VALID,0.326562,
2009-11-02, 01:41:04,VALID,915.272,VALID,0,VALID,86.5486,VALID,0,VALID,21.5331,VALID,54,VALID,0.825391,
2009-11-02, 01:42:04,VALID,915.24,VALID,0,VALID,86.2589,VALID,0,VALID,21.5526,VALID,54,VALID,0.8125,
2009-11-02, 01:43:04,VALID,915.203,VALID,0,VALID,86.1751,VALID,0,VALID,21.59,VALID,54,VALID,0.226953,
2009-11-02, 01:44:04,VALID,915.218,VALID,0,VALID,86.48,VALID,0,VALID,21.5916,VALID,54,VALID,0.494531,
2009-11-02, 01:45:04,VALID,915.171,VALID,0,VALID,86.6859,VALID,0,VALID,21.5119,VALID,54,VALID,0.622266,
2009-11-02, 01:46:04,VALID,915.192,VALID,0,VALID,86.7773,VALID,0,VALID,21.5136,VALID,54,VALID,0.785547,
2009-11-02, 01:47:04,VALID,915.194,VALID,0,VALID,86.8993,VALID,0,VALID,21.4924,VALID,54,VALID,0.741406,
2009-11-02, 01:48:04,VALID,915.184,VALID,0,VALID,86.9222,VALID,0,VALID,21.5136,VALID,54,VALID,1.01602,
2009-11-02, 01:49:04,VALID,915.165,VALID,0,VALID,86.9527,VALID,0,VALID,21.5136,VALID,54,VALID,0.645312,
2009-11-02, 01:50:04,VALID,915.185,VALID,0,VALID,87.0518,VALID,0,VALID,21.4941,VALID,54,VALID,0.75,
2009-11-02, 01:51:04,VALID,915.172,VALID,0,VALID,86.8078,VALID,0,VALID,21.4746,VALID,54,VALID,0.848047,
2009-11-02, 01:52:04,VALID,915.155,VALID,0,VALID,86.7545,VALID,0,VALID,21.5136,VALID,55,VALID,1.3082,
2009-11-02, 01:53:04,VALID,915.159,VALID,0,VALID,86.9603,VALID,0,VALID,21.5119,VALID,55,VALID,0.767578,
2009-11-02, 01:54:04,VALID,915.13,VALID,0,VALID,87.2271,VALID,0,VALID,21.455,VALID,55,VALID,1.15234,
2009-11-02, 01:55:04,VALID,915.147,VALID,0,VALID,87.1966,VALID,0,VALID,21.4355,VALID,56,VALID,1.37891,
2009-11-02, 01:56:04,VALID,915.157,VALID,0,VALID,87.1204,VALID,0,VALID,21.4746,VALID,56,VALID,1.19687,
2009-11-02, 01:57:04,VALID,915.158,VALID,0,VALID,87.2347,VALID,0,VALID,21.4746,VALID,56,VALID,0.773828,
2009-11-02, 01:58:04,VALID,915.147,VALID,0,VALID,87.3186,VALID,0,VALID,21.4534,VALID,57,VALID,1.10859,
2009-11-02, 01:59:04,VALID,915.18,VALID,0,VALID,87.2195,VALID,0.107441,VALID,21.4534,VALID,131,VALID,0.724609,
2009-11-02, 02:00:04,VALID,915.16,VALID,0,VALID,87.4863,VALID,0,VALID,21.4355,VALID,133,VALID,0.994922,
2009-11-02, 02:01:04,VALID,915.172,VALID,0,VALID,87.2729,VALID,0,VALID,21.4746,VALID,142,VALID,1.44141,
2009-11-02, 02:02:04,VALID,915.148,VALID,0,VALID,87.2195,VALID,0,VALID,21.4941,VALID,154,VALID,1.13242,
2009-11-02, 02:03:04,VALID,915.165,VALID,0,VALID,87.1814,VALID,0,VALID,21.4746,VALID,162,VALID,1.13008,
2009-11-02, 02:04:04,VALID,915.12,VALID,0,VALID,87.3796,VALID,0,VALID,21.455,VALID,162,VALID,0.990625,
2009-11-02, 02:05:04,VALID,915.114,VALID,0,VALID,87.654,VALID,0,VALID,21.416,VALID,162,VALID,0.936719,
2009-11-02, 02:06:04,VALID,915.114,VALID,0,VALID,88.2487,VALID,0,VALID,21.338,VALID,155,VALID,1.18359,
2009-11-02, 02:07:04,VALID,915.145,VALID,0,VALID,88.6451,VALID,0,VALID,21.2795,VALID,127,VALID,0.983594,
2009-11-02, 02:08:04,VALID,915.13,VALID,0,VALID,88.95,VALID,0,VALID,21.221,VALID,127,VALID,0.921875,
2009-11-02, 02:09:04,VALID,915.132,VALID,0,VALID,89.2321,VALID,0,VALID,21.1819,VALID,127,VALID,0.445703,
2009-11-02, 02:10:04,VALID,915.152,VALID,0,VALID,89.3541,VALID,0,VALID,21.1624,VALID,127,VALID,0.263672,
2009-11-02, 02:11:04,VALID,915.159,VALID,0,VALID,89.5675,VALID,0,VALID,21.1234,VALID,127,VALID,0.438672,
2009-11-02, 02:12:04,VALID,915.193,VALID,0,VALID,90.063,VALID,0,VALID,21.0454,VALID,127,VALID,0.610937,
2009-11-02, 02:13:04,VALID,915.176,VALID,0,VALID,90.4061,VALID,0,VALID,20.9674,VALID,127,VALID,0.508594,
2009-11-02, 02:14:04,VALID,915.182,VALID,0,VALID,90.7644,VALID,0,VALID,20.9089,VALID,127,VALID,0.631641,
2009-11-02, 02:15:04,VALID,915.187,VALID,0,VALID,90.9397,VALID,0,VALID,20.8504,VALID,127,VALID,1.27109,
2009-11-02, 02:16:04,VALID,915.178,VALID,0,VALID,90.7796,VALID,0,VALID,20.8714,VALID,127,VALID,0.964844,
2009-11-02, 02:17:04,VALID,915.158,VALID,0,VALID,90.6119,VALID,0,VALID,20.8699,VALID,127,VALID,0.597266,
2009-11-02, 02:18:04,VALID,915.148,VALID,0,VALID,90.4747,VALID,0,VALID,20.9089,VALID,127,VALID,0.806641,
2009-11-02, 02:19:04,VALID,915.182,VALID,0,VALID,90.0935,VALID,0,VALID,20.9284,VALID,127,VALID,0.923828,
2009-11-02, 02:20:04,VALID,915.167,VALID,0,VALID,90.0707,VALID,0,VALID,20.9674,VALID,127,VALID,0.801562,
2009-11-02, 02:21:04,VALID,915.149,VALID,0,VALID,90.0173,VALID,0,VALID,21.008,VALID,127,VALID,0.475,
2009-11-02, 02:22:04,VALID,915.125,VALID,0,VALID,89.9258,VALID,0,VALID,21.0064,VALID,127,VALID,0.590234,
2009-11-02, 02:23:04,VALID,915.161,VALID,0,VALID,90.0478,VALID,0,VALID,20.9853,VALID,127,VALID,0.783203,
2009-11-02, 02:24:04,VALID,915.15,VALID,0,VALID,90.2003,VALID,0.107441,VALID,21.0259,VALID,127,VALID,0.865234,
2009-11-02, 02:25:04,VALID,915.158,VALID,0,VALID,89.9258,VALID,0,VALID,21.0048,VALID,127,VALID,0.857813,
2009-11-02, 02:26:05,VALID,915.116,VALID,0,VALID,89.9029,VALID,0.107441,VALID,21.0454,VALID,127,VALID,0.653516,
2009-11-02, 02:27:05,VALID,915.116,VALID,0,VALID,89.5294,VALID,0.107441,VALID,21.0633,VALID,127,VALID,0.540234,
2009-11-02, 02:28:05,VALID,915.102,VALID,0,VALID,89.6437,VALID,0.107441,VALID,21.1039,VALID,127,VALID,0.44375,
2009-11-02, 02:29:05,VALID,915.102,VALID,0,VALID,89.5599,VALID,0,VALID,21.1023,VALID,127,VALID,0.896875,
2009-11-02, 02:30:05,VALID,915.091,VALID,0,VALID,89.3693,VALID,0.107441,VALID,21.1234,VALID,127,VALID,1.05234,
2009-11-02, 02:31:05,VALID,915.093,VALID,0,VALID,89.4913,VALID,0.107441,VALID,21.1234,VALID,127,VALID,0.778516,
2009-11-02, 02:32:05,VALID,915.083,VALID,0,VALID,89.4074,VALID,0.107441,VALID,21.1218,VALID,127,VALID,0.560156,
2009-11-02, 02:33:05,VALID,915.089,VALID,0,VALID,89.5218,VALID,0.107441,VALID,21.1218,VALID,127,VALID,0.2875,
2009-11-02, 02:34:05,VALID,915.096,VALID,0,VALID,89.4837,VALID,0.107441,VALID,21.1413,VALID,127,VALID,0.277344,
2009-11-02, 02:35:05,VALID,915.067,VALID,0,VALID,89.4455,VALID,0,VALID,21.1624,VALID,127,VALID,0.549609,
2009-11-02, 02:36:05,VALID,915.053,VALID,0,VALID,89.4227,VALID,0.107441,VALID,21.1624,VALID,127,VALID,0.189453,
2009-11-02, 02:37:05,VALID,915.05,VALID,0,VALID,89.6666,VALID,0.107441,VALID,21.1218,VALID,127,VALID,0.216406,
2009-11-02, 02:38:05,VALID,915.082,VALID,0,VALID,89.7047,VALID,0.107441,VALID,21.1023,VALID,127,VALID,0.263672,
2009-11-02, 02:39:05,VALID,915.085,VALID,0,VALID,90.0707,VALID,0,VALID,21.0844,VALID,127,VALID,0.0671875,
2009-11-02, 02:40:05,VALID,915.067,VALID,0,VALID,90.4213,VALID,0,VALID,21.0649,VALID,127,VALID,0.0117188,
2009-11-02, 02:41:05,VALID,915.042,VALID,0,VALID,90.429,VALID,0,VALID,21.0454,VALID,127,VALID,0,
2009-11-02, 02:42:05,VALID,915.034,VALID,0,VALID,90.2079,VALID,0.107441,VALID,21.0454,VALID,127,VALID,0,
2009-11-02, 02:43:05,VALID,915.055,VALID,0,VALID,90.6119,VALID,0.107441,VALID,21.0454,VALID,127,VALID,0,
2009-11-02, 02:44:05,VALID,915.039,VALID,0,VALID,90.9626,VALID,0,VALID,20.9853,VALID,127,VALID,0,
2009-11-02, 02:45:05,VALID,915.024,VALID,0,VALID,90.8559,VALID,0,VALID,21.0064,VALID,127,VALID,0,
2009-11-02, 02:46:05,VALID,915.003,VALID,0,VALID,90.2994,VALID,0,VALID,20.9853,VALID,127,VALID,0.0164062,
2009-11-02, 02:47:05,VALID,914.98,VALID,0,VALID,90.5662,VALID,0.107441,VALID,21.0259,VALID,127,VALID,0,
2009-11-02, 02:48:05,VALID,914.943,VALID,0,VALID,90.5204,VALID,0.107441,VALID,21.0259,VALID,127,VALID,0,
2009-11-02, 02:49:05,VALID,914.966,VALID,0,VALID,90.2003,VALID,0.107441,VALID,21.0048,VALID,127,VALID,0.171484,
2009-11-02, 02:50:05,VALID,914.963,VALID,0,VALID,90.7644,VALID,0,VALID,21.0259,VALID,127,VALID,0,
2009-11-02, 02:51:05,VALID,914.918,VALID,0,VALID,90.711,VALID,0.107441,VALID,20.9463,VALID,127,VALID,0.260156,
2009-11-02, 02:52:05,VALID,914.943,VALID,0,VALID,90.894,VALID,0.107441,VALID,20.8894,VALID,127,VALID,0.332422,
2009-11-02, 02:53:05,VALID,914.917,VALID,0,VALID,91.0236,VALID,0.107441,VALID,20.8488,VALID,127,VALID,0.325,
2009-11-02, 02:54:05,VALID,914.912,VALID,0,VALID,91.2066,VALID,0,VALID,20.8098,VALID,127,VALID,0.328906,
2009-11-02, 02:55:05,VALID,914.923,VALID,0,VALID,91.1989,VALID,0.107441,VALID,20.8098,VALID,127,VALID,0.680469,
2009-11-02, 02:56:05,VALID,914.898,VALID,0,VALID,91.2828,VALID,0,VALID,20.8113,VALID,127,VALID,0.692969,
2009-11-02, 02:57:05,VALID,914.896,VALID,0,VALID,91.1532,VALID,0,VALID,20.8309,VALID,127,VALID,0.840234,
2009-11-02, 02:58:05,VALID,914.867,VALID,0,VALID,91.1227,VALID,0,VALID,20.8504,VALID,127,VALID,0.753125,
2009-11-02, 02:59:05,VALID,914.863,VALID,0,VALID,90.8101,VALID,0,VALID,20.8699,VALID,127,VALID,0.944531,
2009-11-02, 03:00:05,VALID,914.882,VALID,0,VALID,90.6348,VALID,0,VALID,20.8878,VALID,127,VALID,1.13906,
2009-11-02, 03:01:05,VALID,914.845,VALID,0,VALID,90.5357,VALID,0,VALID,20.9479,VALID,127,VALID,0.773438,
2009-11-02, 03:02:05,VALID,914.831,VALID,0,VALID,90.1088,VALID,0,VALID,21.0259,VALID,127,VALID,0.864844,
2009-11-02, 03:03:05,VALID,914.821,VALID,0,VALID,89.9487,VALID,0,VALID,21.0649,VALID,127,VALID,0.908984,
2009-11-02, 03:04:05,VALID,914.809,VALID,0,VALID,89.72,VALID,0.107441,VALID,21.1039,VALID,127,VALID,1.04844,
2009-11-02, 03:05:05,VALID,914.816,VALID,0,VALID,89.72,VALID,0,VALID,21.1039,VALID,127,VALID,0.914844,
2009-11-02, 03:06:05,VALID,914.833,VALID,0,VALID,89.8648,VALID,0.107441,VALID,21.1039,VALID,127,VALID,0.96875,
2009-11-02, 03:07:05,VALID,914.801,VALID,0,VALID,89.6133,VALID,0,VALID,21.1039,VALID,127,VALID,1.15156,
2009-11-02, 03:08:05,VALID,914.76,VALID,0,VALID,89.659,VALID,0.107441,VALID,21.1234,VALID,127,VALID,0.931641,
2009-11-02, 03:09:05,VALID,914.755,VALID,0,VALID,89.7429,VALID,0,VALID,21.1234,VALID,127,VALID,1.33789,
2009-11-02, 03:10:05,VALID,914.754,VALID,0,VALID,89.2473,VALID,0.107441,VALID,21.1624,VALID,128,VALID,0.924219,
2009-11-02, 03:11:05,VALID,914.745,VALID,0,VALID,89.2168,VALID,0,VALID,21.2015,VALID,128,VALID,0.977734,
2009-11-02, 03:12:05,VALID,914.705,VALID,0,VALID,89.1025,VALID,0,VALID,21.221,VALID,128,VALID,0.624609,
2009-11-02, 03:13:05,VALID,914.708,VALID,0,VALID,88.4621,VALID,0,VALID,21.2405,VALID,135,VALID,1.27773,
2009-11-02, 03:14:05,VALID,914.711,VALID,0,VALID,87.8827,VALID,0,VALID,21.338,VALID,160,VALID,1.61797,
2009-11-02, 03:15:05,VALID,914.702,VALID,0,VALID,88.3325,VALID,0,VALID,21.416,VALID,160,VALID,0.842188,
2009-11-02, 03:16:05,VALID,914.709,VALID,0,VALID,88.0428,VALID,0,VALID,21.3965,VALID,160,VALID,0.699609,
2009-11-02, 03:17:05,VALID,914.708,VALID,0,VALID,87.715,VALID,0,VALID,21.3965,VALID,160,VALID,0.761328,
2009-11-02, 03:18:05,VALID,914.741,VALID,0,VALID,87.6007,VALID,0,VALID,21.4355,VALID,160,VALID,0.589453,
2009-11-02, 03:19:05,VALID,914.769,VALID,0,VALID,87.1738,VALID,0,VALID,21.4941,VALID,160,VALID,0.6125,
2009-11-02, 03:20:05,VALID,914.76,VALID,0,VALID,87.189,VALID,0,VALID,21.5136,VALID,160,VALID,0.715625,
2009-11-02, 03:21:05,VALID,914.76,VALID,0,VALID,87.311,VALID,0,VALID,21.5331,VALID,160,VALID,0.877344,
2009-11-02, 03:22:05,VALID,914.77,VALID,0,VALID,87.7455,VALID,0,VALID,21.5331,VALID,170,VALID,0.677344,
2009-11-02, 03:23:05,VALID,914.771,VALID,0,VALID,87.6845,VALID,0,VALID,21.4746,VALID,170,VALID,0.319922,
2009-11-02, 03:24:05,VALID,914.749,VALID,0,VALID,87.8827,VALID,0,VALID,21.455,VALID,170,VALID,0.410547,
2009-11-02, 03:25:05,VALID,914.745,VALID,0,VALID,87.9285,VALID,0,VALID,21.4355,VALID,170,VALID,0.641797,
2009-11-02, 03:26:05,VALID,914.746,VALID,0,VALID,88.7366,VALID,0,VALID,21.3965,VALID,170,VALID,0.226563,
2009-11-02, 03:27:05,VALID,914.731,VALID,0,VALID,88.3401,VALID,0,VALID,21.3575,VALID,170,VALID,0.230078,
2009-11-02, 03:28:05,VALID,914.753,VALID,0,VALID,88.0809,VALID,0,VALID,21.3169,VALID,170,VALID,0.185547,
2009-11-02, 03:29:05,VALID,914.773,VALID,0,VALID,88.0276,VALID,0,VALID,21.338,VALID,170,VALID,0.144141,
2009-11-02, 03:30:05,VALID,914.722,VALID,0,VALID,88.4926,VALID,0,VALID,21.338,VALID,170,VALID,0.497266,
2009-11-02, 03:31:05,VALID,914.751,VALID,0,VALID,89.3007,VALID,0,VALID,21.3169,VALID,170,VALID,0.623438,
2009-11-02, 03:32:05,VALID,914.795,VALID,0,VALID,89.2626,VALID,0,VALID,21.26,VALID,170,VALID,0.394531,
2009-11-02, 03:33:05,VALID,914.812,VALID,0,VALID,89.3083,VALID,0,VALID,21.1608,VALID,170,VALID,0.292969,
2009-11-02, 03:34:05,VALID,914.809,VALID,0,VALID,87.2347,VALID,0,VALID,21.2015,VALID,170,VALID,0.693359,
2009-11-02, 03:35:05,VALID,914.8,VALID,0,VALID,88.302,VALID,0,VALID,21.299,VALID,170,VALID,0.433594,
2009-11-02, 03:36:05,VALID,914.804,VALID,0,VALID,88.0581,VALID,0,VALID,21.338,VALID,170,VALID,0.433594,
2009-11-02, 03:37:05,VALID,914.807,VALID,0,VALID,87.5626,VALID,0,VALID,21.377,VALID,170,VALID,0.458984,
2009-11-02, 03:38:05,VALID,914.828,VALID,0,VALID,87.959,VALID,0,VALID,21.377,VALID,170,VALID,0.665625,
2009-11-02, 03:39:05,VALID,914.847,VALID,0,VALID,88.1724,VALID,0,VALID,21.3575,VALID,170,VALID,0.371484,
2009-11-02, 03:40:05,VALID,914.835,VALID,0,VALID,87.7455,VALID,0,VALID,21.3575,VALID,170,VALID,0.859375,
2009-11-02, 03:41:05,VALID,914.842,VALID,0,VALID,88.3783,VALID,0,VALID,21.338,VALID,170,VALID,0.708594,
2009-11-02, 03:42:05,VALID,914.794,VALID,0,VALID,88.6298,VALID,0,VALID,21.2795,VALID,170,VALID,0.78125,
2009-11-02, 03:43:05,VALID,914.812,VALID,0,VALID,87.25,VALID,0,VALID,21.26,VALID,200,VALID,1.76523,